Location: Fours
(44.3167°N, 6.7000°E)
Time: 12:55:41
(UTC+00:00)

Cosmos 2227 - Pass Details

Date: 04 June 2022
Orbit: 833 x 863 km, 71.0° (Epoch: 28 June)

Event Time Altitude Azimuth Distance (km) Brightness Sun altitude
Rises 20:42:23 0° 323° (NW) 3,449 9.5 -12.8°
Reaches altitude 10° 20:45:17 10° 310° (NW) 2,508 8.1 -13.1°
Maximum altitude 20:49:45 24° 259° (W) 1,728 6.1 -13.6°
Drops below altitude 10° 20:54:11 10° 208° (SSW) 2,493 6.4 -14.1°
Enters shadow 20:56:17 - 197° (SSW) 3,150 6.8 -14.3°
